Regional Weather Roundup
Issued by NWS New Orleans/Baton Rouge, LA

Home | Current Version | Previous Version | Graphics & Text | Print | Product List | Glossary On
Versions: 1 2 3 4 5 6 7 8 9 10 11 12 13 14 15 16 17 18 19 20 21 22 23 24 25 26 27 28 29 30 31 32 33 34 35 36 37 38 39 40 41 42 43 44 45 46 47 48 49 50
168
ASUS44 KLIX 210207
RWRLIX
NEW ORLEANS REGIONAL WEATHER ROUNDUP
NATIONAL WEATHER SERVICE NEW ORLEANS LA
900 PM CDT MON APR 20 2015

NOTE: "FAIR" INDICATES FEW OR NO CLOUDS BELOW 12,000 FEET WITH NO
      SIGNIFICANT WEATHER AND/OR OBSTRUCTIONS TO VISIBILITY.
      SKY/WX - SKY CONDITION AND SIGNIFICANT WEATHER.
      TMP - AIR TEMPERATURE.     DP    - DEWPOINT TEMPERATURE.
      RH  - RELATIVE HUMIDITY.   PRES  - PRESSURE.
      HI  - HEAT INDEX.          WCI   - WIND CHILL INDEX.

*  THESE STATIONS ARE NOT NWS OR FAA STATIONS AND ARE NOT UNDER
   NWS QUALITY CONTROL.

LAZ038-040-048-061>063-065>067-069-210300-
SOUTHEAST LOUISIANA

CITY           SKY/WX    TMP DP  RH WIND       PRES   REMARKS
N.O. AUDUBON   NOT AVBL
N.O. INTL ARPT CLOUDY    70  53  54 NW8       29.95R
N.O. LAKEFRONT CLOUDY    74  52  46 N13       29.95R
SLIDELL        MOCLDY    66  56  70 NW3       29.94R
BATON ROUGE    CLOUDY    63  56  78 CALM      29.96R
BOOTHVILLE     CLOUDY    71  63  75 NW5       29.94R
BELLE CHASSE   CLOUDY    70  53  54 NW5       29.94R
BOGALUSA*        N/A     65  55  69 CALM      29.96R
GALLIANO*      CLOUDY    70  58  67 NW5       29.95R
NEW ROADS*       N/A     65  56  74 CALM      29.96R
GONZALES*        N/A     64  58  81 CALM      29.96R
HAMMOND*       CLOUDY    64  54  68 CALM      29.97R
HOUMA*         CLOUDY    67  55  66 NW6       29.95R
PORT FOURCHON* CLEAR     73  59  60 N6        29.97R

$$

MSZ070-080>082-210300-
SOUTHERN MISSISSIPPI

CITY           SKY/WX    TMP DP  RH WIND       PRES   REMARKS
MCCOMB         MOCLDY    60  53  77 CALM      29.96R
GULFPORT       PTCLDY    67  55  65 NW7       29.92R
BILOXI         PTCLDY    69  57  65 VRB3      29.92R
PASCAGOULA     PTCLDY    68  57  68 NW5       29.92R
STENNIS ARPT*  MOCLDY    64  54  68 MISG      29.93R

$$

COASTAL OBSERVATIONS
LAKE AND NEARSHORE STATIONS

STATION/POSITION TIME  TEMP    WIND        PRES    WAVE
                       AIR SEA DIR/SP/G            HT/PER
                 (UTC) (F)     (DEG/KT/KT) (MB)    (FT/S)
PASCAGOULA       0100   73     310/  8/ 11 1011.6
WAVELAND YACHT   0100   71 76  310/  7/  8 1012.8
GRAND ISLE       0100   75 78  350/ 11/ 12 1012.3
SOUTHWEST PASS   0100   70 65  210/  5/  6 1013.1
NEW CANAL        0100   72     350/  8/ 14 1013.4
SHELL BEACH      0100   73 76  320/ 14/ 16 1012.1

OFFSHORE STATIONS

STATION/POSITION TIME  TEMP    WIND        PRES    WAVE
                       AIR SEA DIR/SP/G            HT/PER
                 (UTC) (F)     (DEG/KT/KT) (MB)    (FT/S)
64 S DAUPHIN ISL 0150   74 74  280/ 10/ 12 1012.7    3/ 6

$$




USA.gov is the U.S. government's official web portal to all federal, state and local government web resources and services.